Dewpoint
13 9 16 16 14 15 14 7 4 5 5 4 2 2 10 0 -0 4 6 5 5 3 3 3 22 28 33 35 36 35 38 41 41 44 41 44 55 58 57 60 60 61 61 62 64 63 64 65 65 65 66 66 66 66 66 66 65 65 65 65 65 66 65 65 64 65 65 65 66 67 66 64 64 65 65 65 66 66 66 66 66 66 65 68 68 68
12 9 14 14 10 12 11 11 15 7 8 5 3 -1 7 2 -1 2 4 4 4 12 2 11 19 32 37 38 40 42 41 39 42 43 46 52 56 56 57 58 58 59 60 61 62 62 63 63 64 65 65 65 65 65 65 65 65 66 66 65 66 65 66 65 65 64 65 65 65 66 66 65 63 64 65 65 65 67 67 66 65 66 65 66 68 67
15 9 9 11 7 9 10 12 12 12 13 10 6 2 4 1 1 5 5 5 3 3 17 20 27 33 37 40 43 45 47 50 51 53 53 54 54 54 54 55 56 56 56 57 58 59 58 59 60 62 64 64 65 65 65 65 66 65 66 66 65 66 65 65 66 66 66 67 67 66 65 65 64 65 65 65 66 66 66 67 66 65 65 65 66 67
17 8 5 8 7 12 11 11 12 12 18 13 8 5 1 -1 -1 5 9 7 9 15 27 27 29 36 40 43 44 46 48 50 50 50 51 52 53 52 52 53 54 54 54 54 55 56 57 57 58 59 61 62 62 62 63 64 65 65 66 67 66 66 66 67 66 65 66 67 67 67 67 67 66 65 66 67 66 67 67 66 66 65 66 65 64 65
10 8 5 7 6 12 17 12 11 16 15 15 6 -0 -2 -2 -4 4 8 13 18 17 28 24 32 35 36 39 42 45 46 46 47 49 50 51 52 52 52 52 53 54 54 53 54 55 55 55 56 57 59 60 60 61 61 62 63 64 64 64 65 67 67 66 66 67 67 66 67 67 67 67 67 67 65 64 63 65 65 65 65 65 65 64 64 66
11 7 3 7 7 8 12 11 12 18 12 9 8 1 -1 -2 1 7 10 6 10 15 22 21 25 26 33 35 38 41 43 44 44 48 49 50 50 50 51 51 52 52 53 53 53 53 54 54 55 56 57 58 59 59 60 61 61 62 63 63 64 64 65 66 66 67 66 66 65 65 65 64 63 63 64 63 63 63 64 64 65 66 64 64 64 64
13 9 3 6 8 6 11 12 14 14 9 11 6 4 1 -1 2 3 7 10 13 17 22 24 20 20 32 33 38 42 44 44 45 46 48 48 48 49 49 49 50 51 52 52 53 53 53 54 54 55 56 57 57 58 59 60 60 61 61 63 63 63 64 65 66 67 66 65 65 65 65 64 63 63 63 63 65 66 65 66 66 66 67 65 65 65
13 8 5 7 14 15 16 15 13 9 7 6 6 5 4 1 -0 6 9 11 12 16 21 21 16 20 29 32 41 42 42 44 45 46 47 47 48 48 48 49 50 50 51 51 52 53 53 54 54 55 55 56 56 58 58 59 60 60 61 62 63 64 63 64 65 64 65 65 65 65 64 64 64 64 64 64 64 67 67 66 66 67 66 66 65 65
18 12 9 11 18 15 11 8 6 5 5 6 7 5 7 6 4 11 11 12 13 16 18 19 16 16 30 37 40 41 40 42 43 46 46 46 47 47 48 48 49 49 50 51 51 52 52 53 54 54 55 55 56 57 58 58 59 59 60 60 61 61 63 63 64 64 65 65 65 65 65 65 64 65 64 64 64 63 65 64 65 66 66 65 66 65
9 11 10 14 16 14 8 5 5 6 6 7 8 8 7 7 3 3 10 9 11 16 16 19 18 14 28 38 39 41 38 40 42 45 45 46 46 46 47 47 48 49 49 50 50 51 52 53 54 55 55 55 55 56 57 57 58 58 58 59 59 60 60 61 62 63 64 64 64 65 66 66 66 66 66 64 64 65 65 64 64 64 65 65 65 66
7 20 21 18 15 10 4 5 8 8 6 8 6 8 6 5 7 10 12 10 11 10 12 16 19 15 20 39 37 39 39 39 43 45 46 45 45 45 47 46 47 47 48 49 50 50 51 52 53 53 54 54 55 56 56 57 57 57 58 58 58 58 59 60 61 61 62 63 64 64 64 64 64 65 65 64 64 64 65 64 64 64 63 64 64 64
17 19 19 19 17 9 6 7 7 8 6 10 12 10 6 8 7 12 11 11 9 7 8 10 15 14 9 36 35 38 41 44 45 45 45 45 45 45 46 46 46 46 47 48 49 49 50 51 51 52 52 53 54 54 55 55 56 56 56 56 57 57 58 59 59 60 60 61 62 63 64 64 64 64 63 63 63 64 64 63 63 64 63 63 64 64
14 14 16 15 18 10 9 7 7 9 7 8 12 10 8 7 9 9 9 10 8 8 8 6 5 8 11 30 36 41 44 45 45 45 45 45 44 45 44 45 46 45 46 47 48 48 49 50 50 51 51 52 53 53 54 54 55 55 55 55 55 56 57 57 58 59 59 60 60 61 61 63 64 63 63 62 62 63 63 63 63 64 64 64 62 63
12 13 14 14 11 13 9 6 6 9 7 7 11 11 8 8 9 11 7 12 8 10 8 10 9 10 40 42 45 44 45 44 44 45 44 44 45 45 43 44 44 45 46 46 47 48 48 48 49 50 50 50 51 52 52 53 53 54 54 54 54 55 55 56 56 57 58 58 59 59 60 61 62 63 63 63 63 62 62 62 63 63 63 62 63 63
9 13 15 15 12 12 11 8 7 12 7 6 8 4 11 10 10 11 8 9 9 7 11 8 8 32 32 41 45 44 44 44 44 43 43 44 44 44 43 43 43 44 44 45 45 46 48 48 49 49 50 50 50 51 52 52 52 52 52 53 53 54 55 55 56 56 56 57 58 59 60 60 60 61 62 62 63 62 62 62 63 62 62 62 63 63
7 13 15 15 13 13 13 12 12 10 7 8 6 2 6 9 13 9 12 10 12 9 14 17 25 40 40 45 44 44 43 43 43 43 43 42 42 43 43 44 43 43 44 45 46 46 47 48 49 49 50 50 50 50 51 51 52 52 52 53 52 52 53 53 54 55 56 56 57 58 58 59 59 60 61 60 62 64 64 63 62 63 63 62 62 63
10 15 10 13 13 12 12 14 8 6 10 8 1 5 4 7 6 13 20 26 25 13 12 20 37 41 45 45 43 43 42 41 41 41 42 42 43 44 44 44 44 44 44 45 45 45 46 47 48 48 48 49 49 49 50 50 51 51 51 52 52 52 53 53 53 54 54 55 56 57 58 58 58 59 60 60 61 62 64 64 64 63 62 63 63 63
16 12 9 10 11 13 12 11 10 9 6 4 4 3 3 3 5 16 9 13 11 12 17 27 35 40 38 36 43 41 41 41 41 41 42 43 43 43 43 44 44 44 44 44 45 45 46 46 47 47 47 48 48 49 49 50 51 52 52 51 51 51 51 52 52 53 53 54 54 55 56 56 57 58 59 60 61 61 62 63 63 63 63 63 63 64
13 12 10 12 11 11 11 10 10 10 7 2 2 2 3 7 6 12 12 12 12 12 18 23 35 37 34 36 42 40 40 41 41 42 41 41 41 42 43 43 43 43 44 44 44 44 45 46 46 47 47 46 47 49 49 48 49 50 51 50 51 51 51 52 52 52 52 53 53 53 54 55 55 56 57 58 59 60 61 62 63 63 63 63 63 63
18 13 13 11 8 9 10 7 12 10 8 6 4 -2 -2 8 12 6 9 12 14 11 14 16 24 28 31 40 41 40 41 42 41 41 41 41 42 42 42 42 42 43 44 43 44 44 45 45 46 46 47 46 47 47 48 49 49 49 50 50 50 51 50 51 51 52 52 52 52 53 53 54 52 54 55 56 57 58 59 60 61 62 64 63 63 63
19 23 13 13 10 9 6 7 9 10 10 6 11 8 1 16 11 8 18 9 10 11 9 13 18 27 41 43 40 40 41 42 42 41 42 42 42 42 42 42 43 43 44 44 44 44 45 45 46 46 46 46 47 47 48 49 48 48 48 49 49 50 50 50 51 50 51 51 51 53 53 53 53 54 53 55 55 56 58 58 59 60 61 61 63 62
17 18 17 17 12 7 7 7 8 10 8 7 14 14 4 7 7 9 11 8 6 9 13 11 17 40 44 46 43 41 42 42 42 42 42 41 41 42 42 43 43 43 43 44 44 44 44 44 45 44 44 46 45 46 46 46 47 46 46 47 48 48 48 50 49 49 49 51 52 52 52 52 53 52 52 54 54 54 54 55 56 58 58 60 60 62
23 21 22 16 9 10 7 8 10 9 10 9 8 7 1 9 10 10 8 9 6 3 4 13 31 36 45 47 43 43 42 41 42 42 41 41 42 41 41 41 43 43 43 43 43 43 44 44 44 42 43 44 44 44 44 44 45 46 47 47 48 48 49 49 49 48 48 50 51 51 51 52 51 51 52 52 53 53 53 54 55 55 56 57 58 60
30 21 16 15 7 12 9 4 7 16 17 9 6 5 6 11 10 14 10 15 9 11 9 11 32 37 43 45 43 43 42 41 41 41 41 41 42 41 41 41 42 42 42 42 42 43 42 42 42 41 40 40 40 42 42 42 42 44 45 45 46 47 47 47 47 47 48 49 50 51 51 51 51 51 51 51 51 52 53 53 54 54 55 55 56 57
19 22 15 16 15 10 19 21 17 16 17 17 12 12 7 7 8 15 14 17 13 15 10 11 31 34 42 43 42 41 40 40 40 40 41 41 41 41 40 41 41 42 42 42 42 42 42 41 40 39 38 37 38 38 40 39 39 40 42 43 44 46 46 46 46 46 47 49 49 50 50 51 50 50 50 50 50 51 52 52 52 53 53 54 55 56
18 24 21 13 14 13 16 13 14 18 17 20 18 12 13 4 15 15 12 14 15 20 13 12 34 38 42 42 41 40 40 39 39 40 40 40 40 40 41 41 41 41 41 41 42 42 42 40 39 40 41 38 38 38 38 38 38 38 38 40 43 44 46 46 45 46 47 47 48 48 49 49 49 49 49 49 49 50 50 51 51 51 52 52 54 55
22 32 26 26 18 13 17 19 21 16 18 15 19 17 16 19 15 18 15 14 15 20 18 26 37 37 37 40 40 40 39 38 38 39 39 39 40 41 41 41 41 41 40 40 40 40 40 41 41 41 41 40 40 40 39 38 38 37 38 39 40 42 44 45 45 46 45 46 48 47 48 48 48 48 48 48 48 49 49 49 50 50 50 51 52 54
26 29 38 37 33 33 30 25 23 17 18 16 14 22 20 22 27 24 16 15 18 20 29 38 39 37 37 38 39 38 38 38 38 38 38 38 39 40 41 40 41 38 38 38 38 38 39 40 41 42 42 41 40 40 40 39 38 38 38 38 38 40 43 45 45 44 45 46 46 46 47 47 47 47 47 47 47 47 48 48 48 49 49 50 50 51
29 28 37 36 31 29 31 29 27 24 18 18 17 23 25 23 27 26 25 26 33 25 28 39 39 38 37 38 38 38 38 37 37 38 38 38 38 38 39 38 38 37 36 36 37 38 38 39 40 41 41 40 40 40 40 39 38 39 38 37 36 38 40 42 43 43 43 44 45 46 46 47 47 47 47 46 46 46 46 47 47 48 48 48 49 50
27 29 37 34 30 29 33 31 26 26 32 29 26 21 26 26 24 30 35 34 35 37 39 39 39 38 38 38 38 38 38 37 37 37 37 36 37 37 37 36 35 34 34 35 36 37 38 38 39 40 41 40 40 39 38 39 39 38 38 37 37 38 39 42 43 42 42 42 44 45 44 45 46 45 46 46 45 45 45 45 46 47 46 46 47 47
33 33 37 34 31 32 30 33 30 31 34 36 35 35 36 36 37 39 40 40 40 41 39 38 37 36 38 38 38 38 37 37 37 36 36 36 36 36 35 33 33 33 33 34 35 36 37 38 38 39 39 40 39 39 38 38 38 39 38 38 37 37 38 39 41 42 41 42 43 43 43 44 44 44 44 45 45 45 45 44 46 46 46 46 46 47
37 35 37 36 30 33 32 32 34 35 36 37 37 38 39 38 39 40 37 40 40 38 38 36 34 32 37 37 36 37 36 36 35 35 36 36 36 35 34 33 33 33 34 35 35 36 36 36 37 38 39 39 39 38 38 38 39 38 38 37 36 38 38 39 41 41 41 41 42 42 42 43 43 43 44 44 44 44 44 44 44 44 45 45 45 46
32 34 35 31 27 31 36 37 36 34 31 30 33 38 37 38 38 38 38 41 41 39 35 32 32 34 36 36 35 36 35 35 35 35 35 35 35 34 33 33 33 34 35 34 34 34 35 35 37 39 39 38 37 36 38 39 38 38 38 38 37 37 38 38 40 40 40 40 40 41 42 41 42 43 43 43 43 44 44 44 44 43 44 44 45 45
30 36 33 34 28 32 36 36 35 29 21 26 37 39 39 36 37 37 36 38 39 39 36 35 34 35 36 35 34 34 35 35 35 36 36 36 35 34 33 34 34 34 35 35 35 35 36 37 37 37 38 38 38 37 39 39 39 39 38 38 37 37 36 36 37 39 39 39 38 39 40 41 41 42 42 43 43 44 43 43 43 43 43 43 44 44
33 30 29 33 26 29 36 37 32 26 26 35 38 37 38 38 37 37 38 38 37 37 37 35 35 35 35 35 35 35 35 35 35 35 35 35 35 34 34 34 35 35 36 37 37 37 37 37 38 38 38 37 37 38 38 38 38 38 37 37 37 36 36 36 36 38 38 38 38 38 39 40 40 41 41 42 42 43 43 44 44 44 44 43 43 43
31 27 29 32 26 30 31 30 27 27 36 37 37 38 39 38 38 37 36 37 37 37 36 34 34 34 35 34 35 35 34 34 33 33 33 33 34 34 34 34 35 36 36 36 37 38 37 36 36 38 37 37 37 37 35 36 36 36 37 37 37 37 36 36 36 36 37 37 37 37 37 38 39 40 40 40 41 42 42 43 43 44 44 44 43 43
34 32 31 28 29 25 26 29 30 35 35 35 36 36 36 36 37 35 32 34 37 39 36 34 34 34 34 34 34 34 34 33 33 33 34 34 34 34 34 34 35 36 35 35 36 36 37 35 35 37 36 36 37 36 37 37 36 36 36 36 37 36 35 35 35 35 36 37 37 37 37 38 39 39 39 39 39 40 41 42 42 43 43 43 43 43
33 31 30 29 27 26 28 28 30 29 27 31 35 37 40 41 40 39 36 33 37 35 35 34 33 33 34 33 33 33 34 32 31 32 33 33 34 35 34 35 35 35 34 34 33 33 35 34 33 34 36 37 36 36 36 36 35 35 35 35 36 35 35 34 34 35 36 36 35 36 36 37 37 38 38 38 39 39 40 41 41 41 42 41 42 42
42 38 39 25 27 26 25 26 26 25 29 34 37 38 40 40 40 40 35 32 35 35 35 35 34 34 33 33 33 33 32 31 30 31 33 34 34 34 33 32 31 31 31 31 31 32 32 32 32 32 33 35 34 33 35 34 35 34 34 34 34 34 34 34 33 34 34 35 34 34 35 37 38 37 37 38 39 40 39 39 40 41 41 41 41 41
34 33 32 26 26 26 25 24 24 30 29 36 37 37 36 39 39 38 28 29 36 36 35 35 34 34 34 34 33 32 32 30 30 31 33 33 33 33 32 32 31 31 28 30 31 32 31 31 30 32 33 32 33 34 33 32 32 34 34 34 33 34 33 34 33 32 33 32 33 34 34 36 37 38 38 37 38 38 38 39 39 40 40 40 39 39
27 27 25 25 22 24 25 22 28 32 36 38 36 37 37 40 38 29 25 32 36 35 35 36 35 35 35 34 34 32 34 34 33 33 35 34 32 33 33 32 29 27 26 27 29 32 27 28 29 28 30 31 32 32 32 32 33 33 33 34 34 33 33 34 33 32 33 32 33 33 32 33 36 37 38 37 37 37 37 38 38 38 39 39 39 39
27 25 23 25 21 22 22 19 26 29 35 36 36 37 37 36 27 26 36 38 37 36 36 35 35 35 35 35 35 34 34 34 34 35 35 34 34 33 31 30 29 27 26 28 32 31 29 29 32 31 31 31 30 30 31 31 33 33 33 34 34 34 33 33 32 31 31 31 30 31 32 34 34 37 38 37 37 37 37 37 37 37 37 37 38 38
26 22 17 14 22 22 21 23 24 24 34 38 38 36 37 33 33 37 37 38 37 36 35 35 34 34 36 35 35 35 34 34 35 35 34 34 34 33 32 30 29 27 27 29 29 27 27 27 29 29 32 30 31 31 30 32 33 33 33 34 35 33 33 33 32 30 31 31 31 32 31 34 35 36 37 37 37 36 37 36 36 37 37 37 37 37
36 25 18 27 32 20 15 20 25 33 36 39 37 31 35 35 37 38 38 36 37 36 35 34 35 36 36 35 34 34 35 34 34 34 34 33 33 33 31 30 29 28 29 26 25 25 25 26 28 30 32 31 32 32 32 32 32 32 32 34 33 34 34 33 32 31 31 32 32 32 32 31 33 35 35 34 34 34 36 36 34 33 35 35 35 36
36 36 34 28 35 31 29 31 35 36 37 38 39 37 37 38 38 38 38 37 36 35 36 35 36 35 35 35 35 34 34 34 34 34 33 33 32 30 28 27 30 31 29 28 26 27 27 26 30 29 29 31 33 31 30 31 31 31 33 34 34 32 32 32 31 32 31 29 31 32 29 32 32 33 34 34 33 33 31 34 34 31 33 35 35 35
36 37 37 34 33 36 37 38 39 37 37 37 37 37 37 38 38 38 37 36 36 36 37 36 36 35 35 35 34 34 34 33 33 32 32 30 27 27 29 28 28 28 27 27 27 25 23 26 28 28 30 28 28 28 30 30 28 31 33 33 33 31 31 30 30 30 29 27 30 29 27 30 30 30 33 34 31 31 30 31 31 32 32 32 34 35
35 36 35 31 34 30 31 38 37 37 37 37 37 37 37 38 37 37 37 36 36 37 36 36 36 36 36 36 35 34 33 32 32 31 30 26 23 24 24 25 26 26 26 26 27 28 27 26 23 24 27 28 28 27 28 29 29 30 32 33 31 31 30 28 29 30 30 30 28 30 29 31 29 29 31 35 32 31 31 28 30 33 32 32 33 34
30 36 32 33 34 29 33 37 37 38 37 37 37 36 37 37 37 37 37 37 37 37 36 36 37 36 36 35 34 33 32 31 30 28 25 23 23 22 22 24 24 25 27 28 28 27 26 25 24 24 25 26 26 28 29 29 28 28 31 32 31 30 30 31 29 27 26 26 29 28 28 28 28 29 28 31 34 31 32 31 32 33 34 33 32 33
32 34 28 33 32 34 35 37 36 38 37 36 37 37 37 37 37 37 37 37 37 36 36 36 36 35 34 33 33 32 31 29 26 24 20 19 21 21 21 22 23 25 28 28 31 30 28 26 23 25 25 27 28 29 31 32 31 28 33 32 31 32 31 30 30 29 29 28 27 29 29 29 29 28 28 28 34 35 34 33 33 35 36 37 35 34
30 28 31 32 31 30 32 34 36 32 33 35 36 37 38 37 37 37 37 37 36 35 35 35 35 35 33 33 32 30 28 25 24 24 20 20 21 23 24 23 24 25 26 27 28 28 28 27 28 29 29 29 30 30 30 32 31 32 29 29 30 31 32 31 30 29 27 27 28 28 29 30 28 28 27 28 27 35 35 33 35 36 35 36 35 34
27 32 30 28 28 28 34 35 36 35 36 36 36 37 38 38 37 37 36 36 35 36 36 35 34 33 31 30 29 28 26 25 23 22 21 19 21 23 23 24 24 25 26 28 28 28 28 29 30 30 30 30 31 30 31 32 32 33 31 30 29 30 31 31 30 29 27 27 29 27 29 29 29 29 28 28 28 30 29 35 34 34 34 35 35 35